Location: Be?chatów
(51.3665°N, 19.3745°E)
Time: 08:44:44
(UTC+00:00)

Landsat 5 - Pass Details

Date: 19 May 2025
Orbit: 510 x 610 km, 98.1° (Epoch: 16 June)

Event Time Altitude Azimuth Distance (km) Brightness Sun altitude
Rises 21:52:14 0° 14° (NNE) 2,809 8.1 -17.9°
Reaches altitude 10° 21:54:22 10° 15° (NNE) 1,920 7.0 -18.0°
Maximum altitude 21:58:33 85° 105° (ESE) 606 3.4 -18.1°
Enters shadow 22:00:07 38° 191° (S) 916 3.9 -18.1°
